Regional Weather Roundup
Issued by NWS

Home | Current Version | Previous Version | Text Only | Print | Product List | Glossary On
Versions: 1 2 3 4 5 6 7 8 9 10 11 12 13 14 15 16 17 18 19 20 21 22 23 24 25 26 27 28 29 30 31 32 33 34 35 36 37 38 39 40 41 42 43 44 45 46 47 48 49 50
000
ASUS43 KLMK 291210
RWRKY
KENTUCKY REGIONAL WEATHER ROUNDUP
NATIONAL WEATHER SERVICE LOUISVILLE KY
800 AM EDT MON MAY 29 2017

NOTE "FAIR" INDICATES FEW OR NO CLOUDS BELOW 12,000 FEET
WITH NO SIGNIFICANT WEATHER AND/OR OBSTRUCTIONS TO VISIBILITY.

KYZ001>023-026-027-061>063-070>075-291300-
WESTERN AND SOUTH CENTRAL KENTUCKY

CITY           SKY/WX    TMP DP  RH WIND       PRES   REMARKS
PADUCAH        CLOUDY    64  61  90 S3        29.95S
HENDERSON      MOSUNNY   66  63  90 SW5       29.95S
OWENSBORO      CLOUDY    64  63  96 S5        29.96R FOG
HOPKINSVILLE   MOSUNNY   65  65 100 CALM      29.95F
BOWLING GREEN  CLOUDY    65  64  97 CALM      29.98F
GLASGOW        CLOUDY   N/A N/A N/A CALM      29.98F HAZE
$$

KYZ024-025-028>034-038-045-046-053-291300-
NORTH CENTRAL KENTUCKY

CITY           SKY/WX    TMP DP  RH WIND       PRES   REMARKS
LOUISVILLE/SDF CLOUDY    67  64  90 S7        29.95R
LOUISVILLE/LOU CLOUDY    66  65  96 S3        29.96R FOG
FORT KNOX      CLOUDY    63  63 100 SW3       29.96R
$$

KYZ035>037-039>044-047>052-055>060-089>105-291300-
NORTHEAST KENTUCKY

CITY           SKY/WX    TMP DP  RH WIND       PRES   REMARKS
LEXINGTON      CLOUDY    65  62  90 SW7       29.99R FOG
COVINGTON      SUNNY     63  63 100 SW8       29.94R FOG
FRANKFORT      CLOUDY    65  62  90 SW5       29.96R FOG
$$

KYZ054-064>069-076>088-106>120-291300-
SOUTHEAST KENTUCKY

CITY           SKY/WX    TMP DP  RH WIND       PRES   REMARKS
JACKSON        CLOUDY    65  63  93 CALM      30.00R
LONDON         CLOUDY    66  62  87 W3        30.00F
SOMERSET       CLOUDY    63  63 100 CALM      30.01F
MIDDLESBORO    CLOUDY    67  64  89 CALM      30.00S
MONTICELLO     CLOUDY    67  64  90 W13       30.02S
$$





USA.gov is the U.S. government's official web portal to all federal, state and local government web resources and services.